FW3855 Weather Reports


time (UTC)temp
F
wind
direction
speed
knots
gust
knots
rain 1hr
in
rain 24hr
in
rain mn
in
humidity
%
barometer
mb
20260508190354 85 296 5.2 12.2 0.00 0.00 0.00 2 1017.2
20260508185850 85 11 5.2 12.2 0.00 0.00 0.00 2 1017.2
20260508185350 86 281 4.3 9.6 0.00 0.00 0.00 2 1017.2
20260508184853 85 294 5.2 16.5 0.00 0.00 0.00 2 1017.3
20260508184351 85 5 3.5 16.5 0.00 0.00 0.00 2 1017.4
20260508183853 84 249 4.3 12.2 0.00 0.00 0.00 3 1017.3
20260508183349 83 229 6.1 13.0 0.00 0.00 0.00 3 1017.4
20260508182854 83 314 5.2 13.0 0.00 0.00 0.00 2 1017.5
20260508182354 84 291 4.3 10.4 0.00 0.00 0.00 2 1017.4
20260508181851 84 287 3.5 9.6 0.00 0.00 0.00 2 1017.4
20260508180848 84 259 3.5 9.6 0.00 0.00 0.00 2 1017.5
20260508180348 84 303 3.5 12.2 0.00 0.00 0.00 2 1017.6
20260508175843 83 274 4.3 12.2 0.00 0.00 0.00 2 1017.6
20260508175344 83 271 4.3 11.3 0.00 0.00 0.00 3 1017.6
20260508174344 84 339 3.5 7.8 0.00 0.00 0.00 2 1017.6
20260508173847 84 198 3.5 7.8 0.00 0.00 0.00 3 1017.6
20260508172844 82 309 3.5 9.6 0.00 0.00 0.00 3 1017.6
20260508171843 83 291 2.6 9.6 0.00 0.00 0.00 3 1017.6
20260508171344 83 195 1.7 6.1 0.00 0.00 0.00 3 1017.6
20260508170847 82 300 2.6 7.0 0.00 0.00 0.00 3 1017.6
20260508165850 81 288 2.6 7.0 0.00 0.00 0.00 4 1017.6
20260508165350 81 287 2.6 8.7 0.00 0.00 0.00 4 1017.7
20260508164842 82 294 1.7 8.7 0.00 0.00 0.00 3 1017.7
20260508164343 82 250 1.7 7.0 0.00 0.00 0.00 4 1017.7
20260508163340 82 264 2.6 6.1 0.00 0.00 0.00 4 1017.7
20260508162839 81 262 2.6 8.7 0.00 0.00 0.00 4 1017.6
20260508162338 81 326 2.6 8.7 0.00 0.00 0.00 4 1017.6
20260508161841 82 258 2.6 7.8 0.00 0.00 0.00 4 1017.5
20260508161337 81 274 1.7 7.8 0.00 0.00 0.00 4 1017.5
20260508160838 82 290 1.7 8.7 0.00 0.00 0.00 4 1017.5
20260508160334 81 186 2.6 8.7 0.00 0.00 0.00 4 1017.5
20260508155835 80 200 1.7 5.2 0.00 0.00 0.00 5 1017.4
20260508154832 81 344 1.7 5.2 0.00 0.00 0.00 4 1017.4
20260508154333 80 122 1.7 6.1 0.00 0.00 0.00 4 1017.5
20260508153830 81 288 2.6 6.1 0.00 0.00 0.00 4 1017.5
20260508153335 81 295 2.6 7.0 0.00 0.00 0.00 4 1017.4
20260508152830 80 186 1.7 7.0 0.00 0.00 0.00 4 1017.4
20260508151834 80 298 1.7 4.3 0.00 0.00 0.00 5 1017.4
20260508150834 80 294 1.7 5.2 0.00 0.00 0.00 5 1017.4
20260508145832 80 218 1.7 6.1 0.00 0.00 0.00 5 1017.4
20260508145331 79 269 2.6 7.8 0.00 0.00 0.00 5 1017.4
20260508144825 79 217 3.5 7.8 0.00 0.00 0.00 6 1017.3
20260508144326 79 191 2.6 7.8 0.00 0.00 0.00 6 1017.4
20260508143829 79 134 1.7 6.1 0.00 0.00 0.00 5 1017.4
20260508143326 78 276 1.7 5.2 0.00 0.00 0.00 5 1017.4
20260508142817 77 136 2.6 5.2 0.00 0.00 0.00 5 1017.3
20260508142312 77 164 2.6 7.0 0.00 0.00 0.00 5 1017.3
20260508141807 77 169 3.5 7.8 0.00 0.00 0.00 6 1017.2
20260508141259 77 229 3.5 7.8 0.00 0.00 0.00 6 1017.0
20260508140754 76 188 3.5 7.8 0.00 0.00 0.00 7 1017.0
20260508140249 76 101 3.5 7.8 0.00 0.00 0.00 7 1016.9
20260508135742 76 174 3.5 8.7 0.00 0.00 0.00 7 1016.9
20260508135237 75 192 4.3 8.7 0.00 0.00 0.00 7 1016.9
20260508134731 75 169 3.5 8.7 0.00 0.00 0.00 7 1016.9
20260508134224 74 162 3.5 8.7 0.00 0.00 0.00 8 1016.8
20260508133718 74 159 2.6 6.1 0.00 0.00 0.00 8 1016.8
20260508133211 74 214 1.7 7.0 0.00 0.00 0.00 8 1016.8
20260508132201 72 206 1.7 6.1 0.00 0.00 0.00 8 1016.7
20260508131653 71 173 1.7 5.2 0.00 0.00 0.00 9 1016.6
20260508131148 71 199 1.7 5.2 0.00 0.00 0.00 9 1016.6
20260508130640 71 183 2.6 5.2 0.00 0.00 0.00 8 1016.6
20260508130135 70 172 1.7 5.2 0.00 0.00 0.00 8 1016.5
20260508125628 70 123 1.7 4.3 0.00 0.00 0.00 8 1016.5
20260508125124 70 247 1.7 4.3 0.00 0.00 0.00 8 1016.5
20260508124110 70 153 1.7 5.2 0.00 0.00 0.00 8 1016.4
20260508123604 70 215 1.7 5.2 0.00 0.00 0.00 8 1016.2
20260508123059 70 224 1.7 5.2 0.00 0.00 0.00 8 1016.2
20260508122551 70 169 2.6 7.8 0.00 0.00 0.00 8 1016.2
20260508121033 70 203 3.5 8.7 0.00 0.00 0.00 8 1016.2
20260508120531 70 200 3.5 8.7 0.00 0.00 0.00 8 1016.2
20260508120024 69 219 2.6 5.2 0.00 0.00 0.00 8 1016.1
20260508115519 69 208 2.6 5.2 0.00 0.00 0.00 8 1016.2
20260508115015 70 169 2.6 7.0 0.00 0.00 0.00 7 1016.1
20260508114506 70 155 2.6 7.0 0.00 0.00 0.00 7 1016.1
20260508113454 70 196 0.9 4.3 0.00 0.00 0.00 7 1016.2
20260508112946 70 240 1.7 5.2 0.00 0.00 0.00 6 1016.2
20260508112442 71 260 1.7 5.2 0.00 0.00 0.00 6 1016.2
20260508111933 70 188 2.6 8.7 0.00 0.00 0.00 6 1016.0
20260508111427 70 230 2.6 8.7 0.00 0.00 0.00 6 1016.0
20260508110922 70 164 2.6 7.8 0.00 0.00 0.00 6 1016.1
20260508110417 71 224 1.7 7.0 0.00 0.00 0.00 6 1016.1
20260508105909 71 147 1.7 4.3 0.00 0.00 0.00 6 1016.1
20260508105406 71 210 1.7 7.0 0.00 0.00 0.00 6 1016.2
20260508104900 72 292 2.6 8.7 0.00 0.00 0.00 6 1016.4
20260508104359 72 274 3.5 10.4 0.00 0.00 0.00 6 1016.2
20260508103845 72 227 2.6 10.4 0.00 0.00 0.00 6 1016.4
20260508102833 71 284 1.7 7.8 0.00 0.00 0.00 6 1016.2
20260508102330 71 252 1.7 6.1 0.00 0.00 0.00 6 1016.1
20260508101315 70 255 1.7 3.5 0.00 0.00 0.00 6 1016.2
20260508100810 70 226 1.7 6.1 0.00 0.00 0.00 6 1016.2
20260508095252 70 233 1.7 4.3 0.00 0.00 0.00 5 1016.2
20260508094746 70 175 1.7 3.5 0.00 0.00 0.00 4 1016.4
20260508094246 70 163 1.7 3.5 0.00 0.00 0.00 3 1016.4
20260508093745 70 216 0.9 3.5 0.00 0.00 0.00 3 1016.4
20260508092747 71 185 1.7 6.1 0.00 0.00 0.00 2 1016.5
20260508092246 71 246 1.7 6.1 0.00 0.00 0.00 2 1016.2
20260508091743 71 133 0.9 5.2 0.00 0.00 0.00 2 1016.2
20260508090242 72 188 1.7 8.7 0.00 0.00 0.00 2 1016.2
20260508085741 71 221 0.9 8.7 0.00 0.00 0.00 2 1016.4
20260508085241 71 125 0.9 5.2 0.00 0.00 0.00 1 1016.4
20260508084746 72 103 0.9 6.1 0.00 0.00 0.00 1 1016.5
20260508083745 73 242 3.5 8.7 0.00 0.00 0.00 2 1016.5
20260508083248 73 282 4.3 9.6 0.00 0.00 0.00 2 1016.5
20260508082738 73 101 3.5 9.6 0.00 0.00 0.00 1 1016.6
20260508082229 73 220 3.5 9.6 0.00 0.00 0.00 1 1016.5
20260508081722 73 283 3.5 9.6 0.00 0.00 0.00 2 1016.5
20260508081221 73 267 3.5 8.7 0.00 0.00 0.00 2 1016.5
20260508080719 73 221 3.5 9.6 0.00 0.00 0.00 2 1016.6
20260508080219 72 292 2.6 9.6 0.00 0.00 0.00 2 1016.5
20260508075719 72 231 1.7 5.2 0.00 0.00 0.00 2 1016.6
20260508075223 72 165 2.6 7.0 0.00 0.00 0.00 1 1016.6
20260508074718 72 158 2.6 9.6 0.00 0.00 0.00 1 1016.7
20260508074219 71 210 1.7 9.6 0.00 0.00 0.00 2 1016.7
20260508073721 71 259 1.7 6.1 0.00 0.00 0.00 2 1016.7
20260508072715 69 234 1.7 6.1 0.00 0.00 0.00 3 1016.7
20260508072217 66 229 1.7 3.5 0.00 0.00 0.00 4 1016.7
20260508071717 66 181 1.7 3.5 0.00 0.00 0.00 4 1016.8
20260508071215 65 219 1.7 3.5 0.00 0.00 0.00 4 1016.7
20260508070714 65 207 0.9 3.5 0.00 0.00 0.00 4 1016.7
20260508070221 64 182 0.9 2.6 0.00 0.00 0.00 4 1016.7
20260508065718 65 197 0.9 2.6 0.00 0.00 0.00 4 1016.6
20260508065218 65 177 1.7 3.5 0.00 0.00 0.00 3 1016.6
20260508064723 66 192 2.6 4.3 0.00 0.00 0.00 3 1016.6
20260508064216 66 219 2.6 4.3 0.00 0.00 0.00 3 1016.7
20260508063719 66 197 2.6 3.5 0.00 0.00 0.00 3 1016.7
20260508062215 64 188 1.7 3.5 0.00 0.00 0.00 3 1016.7
20260508061215 64 191 0.9 2.6 0.00 0.00 0.00 3 1016.6
20260508060718 64 170 1.7 2.6 0.00 0.00 0.00 3 1016.6
20260508060215 64 179 0.9 2.6 0.00 0.00 0.00 3 1016.6
20260508055715 65 187 0.0 1.7 0.00 0.00 0.00 3 1016.5
20260508055217 66 197 0.9 1.7 0.00 0.00 0.00 2 1016.6
20260508054215 68 170 0.9 2.6 0.00 0.00 0.00 2 1016.5
20260508053717 69 90 0.9 4.3 0.00 0.00 0.00 1 1016.5
20260508053211 69 201 0.9 4.3 0.00 0.00 0.00 1 1016.4
20260508052710 69 192 0.9 2.6 0.00 0.00 0.00 1 1016.4
20260508052211 70 212 0.9 3.5 0.00 0.00 0.00 1 1016.4
20260508051715 71 211 1.7 3.5 0.00 0.00 0.00 1 1016.5
20260508051209 71 214 2.6 5.2 0.00 0.00 0.00 1 1016.6
20260508050711 72 211 2.6 6.1 0.00 0.00 0.00 1 1016.5
20260508050206 72 245 3.5 6.1 0.00 0.00 0.00 1 1016.6
20260508045705 72 203 3.5 5.2 0.00 0.00 0.00 1 1016.7
20260508045159 73 149 2.6 5.2 0.00 0.00 0.00 1 1016.7
20260508044655 72 209 1.7 5.2 0.00 0.00 0.00 1 1016.7
20260508044148 72 243 0.9 3.5 0.00 0.00 0.00 1 1016.7
20260508043652 72 230 0.9 2.6 0.00 0.00 0.00 1 1016.7
20260508043149 73 207 1.7 3.5 0.00 0.00 0.00 1 1016.6
20260508042145 73 303 1.7 5.2 0.00 0.00 0.00 1 1016.7
20260508041646 74 303 2.6 5.2 0.00 0.00 0.00 1 1016.7
20260508041146 74 242 1.7 5.2 0.00 0.00 0.00 1 1016.6
20260508040646 73 236 0.9 4.3 0.00 0.00 0.00 1 1016.6
20260508040145 73 296 0.9 4.3 0.00 0.00 0.00 1 1016.6
20260508035644 73 234 0.9 5.2 0.00 0.00 0.00 1 1016.5
20260508035144 74 272 1.7 5.2 0.00 0.00 0.00 1 1016.5
20260508034643 74 295 1.7 4.3 0.00 0.00 0.00 1 1016.5
20260508033644 74 293 2.6 7.0 0.00 0.00 0.00 1 1016.5
20260508033141 74 294 2.6 7.0 0.00 0.00 0.00 1 1016.2
20260508032641 73 306 1.7 4.3 0.00 0.00 0.00 1 1016.2
20260508032141 73 267 1.7 7.0 0.00 0.00 0.00 1 1016.2
20260508031636 73 291 1.7 7.0 0.00 0.00 0.00 1 1016.2
20260508030117 74 284 1.7 7.0 0.00 0.00 0.00 1 1016.1
20260508025611 74 293 1.7 7.0 0.00 0.00 0.00 1 1016.1
20260508024559 74 296 0.9 4.3 0.00 0.00 0.00 2 1015.9
20260508024054 74 302 0.9 5.2 0.00 0.00 0.00 2 1015.8
20260508023548 75 107 1.7 5.2 0.00 0.00 0.00 2 1015.8
20260508023041 75 295 2.6 7.0 0.00 0.00 0.00 2 1015.7
20260508022536 76 301 2.6 7.8 0.00 0.00 0.00 2 1015.6
20260508022032 76 257 3.5 7.8 0.00 0.00 0.00 2 1015.6
20260508021020 76 291 1.7 5.2 0.00 0.00 0.00 2 1015.3
20260508015459 77 309 1.7 6.1 0.00 0.00 0.00 2 1015.2
20260508014954 78 285 1.7 6.1 0.00 0.00 0.00 2 1015.2
20260508014447 80 317 2.6 6.1 0.00 0.00 0.00 1 1015.1
20260508013942 81 281 2.6 6.1 0.00 0.00 0.00 1 1015.1
20260508013436 81 323 2.6 6.1 0.00 0.00 0.00 1 1015.0
20260508012423 81 308 3.5 8.7 0.00 0.00 0.00 1 1015.0
20260508011917 81 328 3.5 8.7 0.00 0.00 0.00 1 1015.0
20260508011412 82 343 2.6 6.1 0.00 0.00 0.00 1 1015.1
20260508010906 82 290 2.6 6.1 0.00 0.00 0.00 1 1015.0
20260508010402 82 299 3.5 7.0 0.00 0.00 0.00 1 1015.0
20260508005853 82 331 3.5 7.8 0.00 0.00 0.00 1 1015.0
20260508005347 82 334 3.5 7.0 0.00 0.00 0.00 1 1015.0
20260508004844 82 310 2.6 7.0 0.00 0.00 0.00 1 1014.9
20260508004336 82 329 3.5 7.0 0.00 0.00 0.00 1 1014.9
20260508003829 82 319 3.5 8.7 0.00 0.00 0.00 1 1014.9
20260508003326 82 283 5.2 13.9 0.00 0.00 0.00 1 1014.9
20260508002820 83 281 3.5 13.9 0.00 0.00 0.00 1 1014.9
20260508002311 83 311 2.6 8.7 0.00 0.00 0.00 1 1014.9
20260508001808 84 294 3.5 8.7 0.00 0.00 0.00 1 1015.0
20260508000312 83 309 1.7 7.0 0.00 0.00 0.00 1 1015.0
20260507235809 84 254 3.5 8.7 0.00 0.00 0.00 1 1015.0
20260507234809 83 282 3.5 9.6 0.00 0.00 0.00 1 1015.3
20260507233807 83 123 2.6 9.6 0.00 0.00 0.00 1 1015.2
20260507233306 83 259 2.6 9.6 0.00 0.00 0.00 1 1015.2
20260507232809 83 290 1.7 5.2 0.00 0.00 0.00 1 1015.3
20260507231808 83 300 3.5 9.6 0.00 0.00 0.00 1 1015.4
20260507231306 83 359 1.7 9.6 0.00 0.00 0.00 1 1015.4
20260507230807 83 295 0.9 7.8 0.00 0.00 0.00 1 1015.3
20260507230309 82 73 3.5 8.7 0.00 0.00 0.00 1 1015.4
20260507225306 82 314 3.5 9.6 0.00 0.00 0.00 1 1015.6
20260507224801 81 291 3.5 7.8 0.00 0.00 0.00 1 1015.6
20260507223746 82 239 3.5 7.8 0.00 0.00 0.00 1 1015.7
20260507223240 83 287 2.6 8.7 0.00 0.00 0.00 1 1015.7
20260507222737 83 257 3.5 8.7 0.00 0.00 0.00 1 1015.8
20260507221726 83 307 3.5 8.7 0.00 0.00 0.00 1 1016.0
20260507221217 82 268 4.3 9.6 0.00 0.00 0.00 1 1016.0
20260507220711 82 308 3.5 9.6 0.00 0.00 0.00 1 1016.0
20260507215701 82 352 3.5 6.1 0.00 0.00 0.00 1 1016.1
20260507214648 82 32 3.5 9.6 0.00 0.00 0.00 1 1016.2
20260507214153 82 73 2.6 7.0 0.00 0.00 0.00 1 1016.4
20260507213648 82 304 3.5 7.8 0.00 0.00 0.00 1 1016.4
20260507213147 82 310 4.3 8.7 0.00 0.00 0.00 1 1016.6
20260507212653 81 305 3.5 8.7 0.00 0.00 0.00 1 1016.6
20260507212148 81 348 3.5 8.7 0.00 0.00 0.00 1 1016.7
20260507211651 81 326 3.5 9.6 0.00 0.00 0.00 1 1016.8
20260507211154 81 283 4.3 9.6 0.00 0.00 0.00 1 1016.8
20260507210651 82 344 3.5 8.7 0.00 0.00 0.00 1 1016.9
20260507210154 82 295 1.7 8.7 0.00 0.00 0.00 1 1017.0
20260507205655 83 77 0.9 6.1 0.00 0.00 0.00 1 1017.0
20260507205152 81 311 2.6 8.7 0.00 0.00 0.00 1 1017.0
20260507203149 80 342 4.3 10.4 0.00 0.00 0.00 1 1017.6
20260507202648 80 292 3.5 10.4 0.00 0.00 0.00 1 1017.5
20260507202148 80 336 3.5 8.7 0.00 0.00 0.00 1 1017.5
20260507201650 80 300 3.5 8.7 0.00 0.00 0.00 1 1017.5
20260507201150 80 33 4.3 9.6 0.00 0.00 0.00 1 1017.6
20260507200148 80 5 2.6 7.0 0.00 0.00 0.00 1 1017.7
20260507195649 80 86 1.7 6.1 0.00 0.00 0.00 1 1017.8
20260507195148 80 31 1.7 6.1 0.00 0.00 0.00 1 1018.0
20260507194652 80 50 1.7 5.2 0.00 0.00 0.00 2 1018.0
20260507194148 79 231 2.6 9.6 0.00 0.00 0.00 2 1018.0
20260507193647 78 298 3.5 9.6 0.00 0.00 0.00 2 1018.2
20260507193146 78 271 3.5 8.7 0.00 0.00 0.00 3 1018.2
20260507192146 78 56 3.5 9.6 0.00 0.00 0.00 2 1018.3
20260507191646 79 319 2.6 9.6 0.00 0.00 0.00 2 1018.4
20260507191147 79 127 2.6 7.8 0.00 0.00 0.00 2 1018.4
20260507190646 78 340 2.6 7.8 0.00 0.00 0.00 2 1018.5